Date String (YYYY-MM-DD hh:mm:ss) UTC,Instrument flags,Ambient pressure (hPa),Sample flow (lpm),Bypass flow (lpm),Sample temperature (°C),Ambient temperature (°C),ASC tube jacket temperature (°C),LED temperature (°C),Box temperature (°C),Sample RH (%),Span deviation,Mass concentration (μg/m³),Mass concentration (μg/m³),Mass concentration (μg/m³)
DateTimeUTC,F1_M11,P_M11,Q1_M11,Q2_M11,T1_M11,T2_M11,T3_M11,T4_M11,T5_M11,U1_M11,ZSPAN_M11,X0_M11,X2_M11,X1_M11
2022-01-30 12:00:00,,0825.8,4.99,0.00,22.2,21.4,00.0,31.3,23.8,04.1,0000.0,0000.66,0000.54,0000.52
2022-01-30 12:01:00,,0825.8,5.00,0.00,22.1,21.4,00.0,31.3,23.8,04.0,0000.0,0000.63,0000.54,0000.52
2022-01-30 12:02:00,,0825.8,5.00,0.00,22.1,21.4,00.0,31.2,23.8,03.9,0000.0,0000.65,0000.54,0000.51
2022-01-30 12:03:00,,0825.8,5.01,0.00,22.2,21.7,00.0,31.3,23.9,03.9,0000.0,0000.64,0000.53,0000.50
2022-01-30 12:04:00,,0825.8,4.99,0.00,22.3,22.5,00.0,31.3,24.1,03.7,0000.0,0000.65,0000.54,0000.51
2022-01-30 12:05:00,,0825.9,5.01,0.00,22.4,22.7,00.0,553186.5,21.6,03.7,0000.0,0000.66,0000.54,0000.51
2022-01-30 12:06:00,,0825.9,5.00,0.00,22.5,22.9,00.0,31.3,24.4,03.6,0000.0,0000.70,0000.56,0000.52
2022-01-30 12:07:00,,0825.9,4.99,0.00,22.5,22.7,00.0,31.3,24.3,03.6,0000.0,0000.76,0000.60,0000.54
2022-01-30 12:08:00,,0825.9,4.99,0.00,22.5,22.4,00.0,31.4,24.3,03.6,0000.0,0000.82,0000.64,0000.57
2022-01-30 12:09:00,,0825.9,5.00,0.00,22.4,22.2,00.0,31.4,24.2,03.6,0000.0,0000.83,0000.65,0000.58
2022-01-30 12:10:00,,0825.9,5.00,0.00,22.4,22.1,00.0,31.4,24.2,03.6,0000.0,0000.83,0000.65,0000.58
2022-01-30 12:11:00,,0825.8,5.00,0.00,22.4,21.9,00.0,31.4,24.1,03.6,0000.0,0000.85,0000.66,0000.58
2022-01-30 12:12:00,,0825.9,5.01,0.00,22.4,21.8,00.0,31.4,24.0,03.8,0000.0,0000.87,0000.66,0000.57
2022-01-30 12:13:00,,0825.9,4.99,0.00,22.3,21.8,00.0,31.3,24.0,04.1,0000.0,0000.86,0000.66,0000.57
2022-01-30 12:14:00,,0825.9,4.99,0.00,22.3,21.7,00.0,31.3,24.0,03.9,0000.0,0000.87,0000.66,0000.56
2022-01-30 12:15:00,,0825.9,5.00,0.00,22.3,21.6,00.0,31.3,23.9,03.8,0000.0,0000.87,0000.66,0000.56
2022-01-30 12:16:00,,0825.8,5.00,0.00,22.2,21.6,00.0,31.3,23.9,03.8,0000.0,0000.85,0000.65,0000.55
2022-01-30 12:17:00,,0825.9,4.99,0.00,22.2,21.5,00.0,31.3,23.9,03.8,0000.0,0000.80,0000.62,0000.53
2022-01-30 12:18:00,,0825.9,5.01,0.00,22.2,21.5,00.0,31.3,23.8,03.8,0000.0,0000.72,0000.57,0000.50
2022-01-30 12:19:00,,0825.9,5.00,0.00,22.2,21.5,00.0,31.3,23.8,03.7,0000.0,0000.67,0000.52,0000.46
2022-01-30 12:20:00,,0825.9,5.01,0.00,22.1,21.4,00.0,31.3,23.8,03.7,0000.0,0000.64,0000.50,0000.44
2022-01-30 12:21:00,,0825.8,4.98,0.00,22.1,21.4,00.0,31.2,23.8,03.7,0000.0,0000.64,0000.50,0000.44
2022-01-30 12:22:00,,0825.8,5.00,0.00,22.1,21.4,00.0,31.2,23.8,03.7,0000.0,0000.62,0000.48,0000.43
2022-01-30 12:23:00,,0825.9,5.01,0.00,22.2,21.9,00.0,31.2,23.9,03.7,0000.0,0000.57,0000.47,0000.44
2022-01-30 12:24:00,,0825.9,5.00,0.00,22.3,22.7,00.0,31.3,24.2,03.6,0000.0,0000.56,0000.47,0000.44
2022-01-30 12:25:00,,0825.9,5.00,0.00,22.4,23.1,00.0,31.3,24.4,03.6,0000.0,0000.62,0000.49,0000.45
2022-01-30 12:26:00,,0825.9,4.99,0.00,22.5,22.9,00.0,31.3,24.4,03.6,0000.0,0000.64,0000.50,0000.46
2022-01-30 12:27:00,,0826.0,5.00,0.00,22.5,22.6,00.0,31.3,24.3,03.6,0000.0,0000.66,0000.51,0000.47
2022-01-30 12:28:00,,0826.0,4.99,0.00,22.5,22.4,00.0,31.4,24.3,03.6,0000.0,0000.67,0000.53,0000.47
2022-01-30 12:29:00,,0826.0,5.00,0.00,22.5,22.2,00.0,31.4,24.2,04.1,0000.0,0000.69,0000.54,0000.47
2022-01-30 12:30:00,,0826.0,4.99,0.00,22.4,22.1,00.0,31.4,24.1,05.2,0000.0,0000.72,0000.55,0000.48
2022-01-30 12:31:00,,0826.0,5.00,0.00,22.4,22.0,00.0,31.4,24.1,04.4,0000.0,0000.73,0000.56,0000.49
2022-01-30 12:32:00,,0826.1,5.00,0.00,22.4,21.9,00.0,31.3,24.1,04.2,0000.0,0000.73,0000.56,0000.49
2022-01-30 12:33:00,,0826.0,5.00,0.00,22.4,21.8,00.0,31.3,24.1,04.4,0000.0,0000.73,0000.56,0000.49
2022-01-30 12:34:00,,0826.0,4.98,0.00,22.3,21.8,00.0,31.3,24.0,04.5,0000.0,0000.73,0000.56,0000.49
2022-01-30 12:35:00,,0826.0,5.00,0.00,22.3,21.7,00.0,31.3,24.0,05.1,0000.0,0000.80,0000.57,0000.49
2022-01-30 12:36:00,,0826.0,5.00,0.00,22.3,21.7,00.0,31.3,24.0,04.7,0000.0,0000.89,0000.57,0000.49
2022-01-30 12:37:00,,0826.0,5.00,0.00,22.3,21.6,00.0,31.3,23.9,05.0,0000.0,0000.89,0000.56,0000.49
2022-01-30 12:38:00,,0826.0,5.01,0.00,22.3,21.6,00.0,31.3,23.9,04.9,0000.0,0000.90,0000.56,0000.48
2022-01-30 12:39:00,,0826.0,5.00,0.00,22.2,21.5,00.0,31.3,23.9,04.4,0000.0,0000.90,0000.56,0000.49
2022-01-30 12:40:00,,0826.0,5.00,0.00,22.2,21.5,00.0,31.3,23.9,04.2,0000.0,0000.90,0000.56,0000.50
2022-01-30 12:41:00,,0826.0,5.00,0.00,22.2,21.5,00.0,31.3,23.9,04.1,0000.0,0000.89,0000.56,0000.50
2022-01-30 12:42:00,,0826.0,5.00,0.00,22.2,21.4,00.0,31.3,23.8,04.2,0000.0,0000.88,0000.56,0000.50
2022-01-30 12:43:00,,0826.0,5.00,0.00,22.2,21.5,00.0,31.2,23.8,04.2,0000.0,0000.89,0000.57,0000.51
2022-01-30 12:44:00,,0826.0,4.99,0.00,22.2,22.2,00.0,31.3,24.0,04.2,0000.0,0000.91,0000.59,0000.53
2022-01-30 12:45:00,,0826.0,5.00,0.00,22.4,22.9,00.0,31.3,24.3,04.1,0000.0,0000.94,0000.60,0000.54
2022-01-30 12:46:00,,0826.1,5.01,0.00,22.5,23.1,00.0,31.3,24.5,04.0,0000.0,0000.89,0000.61,0000.56
2022-01-30 12:47:00,,0826.0,5.00,0.00,22.5,22.9,00.0,31.4,24.5,03.9,0000.0,0000.73,0000.60,0000.57
2022-01-30 12:48:00,,0826.0,5.00,0.00,22.5,22.7,00.0,31.4,24.4,03.8,0000.0,0000.74,0000.62,0000.59
2022-01-30 12:49:00,,0826.1,4.99,0.00,22.5,22.5,00.0,31.4,24.3,03.8,0000.0,0000.75,0000.64,0000.62
2022-01-30 12:50:00,,0826.0,5.00,0.00,22.5,22.3,00.0,31.4,24.3,03.7,0000.0,0000.84,0000.68,0000.65
2022-01-30 12:51:00,,0826.1,5.00,0.00,22.5,22.2,00.0,31.4,24.3,03.9,0000.0,0000.93,0000.72,0000.67
2022-01-30 12:52:00,,0826.1,5.00,0.00,22.5,22.1,00.0,31.4,24.2,04.0,0000.0,0002.00,0000.78,0000.70
2022-01-30 12:53:00,,0826.1,5.00,0.00,22.5,22.0,00.0,31.4,24.2,04.1,0000.0,0002.17,0000.83,0000.74
2022-01-30 12:54:00,,0826.1,5.00,0.00,22.4,21.9,00.0,31.4,24.2,04.1,0000.0,0002.28,0000.89,0000.79
2022-01-30 12:55:00,,0826.2,4.99,0.00,22.4,21.9,00.0,31.4,24.2,04.1,0000.0,0002.31,0000.92,0000.81
2022-01-30 12:56:00,,0826.1,5.00,0.00,22.4,21.9,00.0,31.4,24.1,04.2,0000.0,0002.33,0000.95,0000.84
2022-01-30 12:57:00,,0826.2,5.01,0.00,22.4,21.8,00.0,31.4,24.1,04.1,0000.0,0002.37,0000.98,0000.88
2022-01-30 12:58:00,,0826.2,5.01,0.00,22.4,21.8,00.0,31.4,24.1,04.2,0000.0,0002.43,0001.01,0000.90
2022-01-30 12:59:00,,0826.1,4.98,0.00,22.4,21.8,00.0,31.4,24.1,04.2,0000.0,0002.50,0001.05,0000.92
